QPF
0.00 0.00 0.00 0.00 0.00 0.00 0.00 0.00 0.00 0.00 0.00 0.00 0.00 0.00 0.00 0.00 0.00 0.00 0.00 0.00 0.00 0.00 0.00 0.00 0.00 0.00 0.00 0.00 0.00 0.00 0.00 0.00 0.00 0.00 0.00 0.00 0.00 0.00 0.00 0.00 0.00 0.00 0.00 0.00 0.00 0.00 0.02 0.02 0.01 0.00 0.00 0.00 0.00 0.00
0.00 0.00 0.00 0.00 0.00 0.00 0.00 0.00 0.00 0.00 0.00 0.00 0.00 0.00 0.00 0.00 0.00 0.00 0.00 0.00 0.00 0.00 0.00 0.00 0.00 0.00 0.00 0.00 0.00 0.00 0.00 0.00 0.00 0.00 0.00 0.00 0.00 0.00 0.00 0.00 0.00 0.00 0.00 0.01 0.00 0.01 0.01 0.01 0.05 0.00 0.00 0.00 0.00 0.00
0.00 0.00 0.00 0.00 0.00 0.00 0.00 0.00 0.00 0.00 0.00 0.00 0.00 0.00 0.00 0.00 0.00 0.00 0.00 0.00 0.00 0.00 0.00 0.00 0.00 0.00 0.00 0.00 0.00 0.00 0.00 0.00 0.00 0.00 0.00 0.00 0.00 0.00 0.00 0.00 0.00 0.00 0.00 0.00 0.01 0.02 0.00 0.00 0.00 0.00 0.00 0.00 0.00 0.00
0.00 0.00 0.00 0.00 0.00 0.00 0.00 0.00 0.00 0.00 0.00 0.00 0.00 0.00 0.00 0.00 0.00 0.00 0.00 0.00 0.00 0.00 0.00 0.00 0.00 0.00 0.00 0.00 0.00 0.00 0.00 0.00 0.00 0.00 0.00 0.00 0.00 0.00 0.00 0.00 0.00 0.00 0.00 0.00 0.00 0.00 0.00 0.01 0.00 0.00 0.00 0.00 0.00 0.00
0.00 0.00 0.00 0.00 0.00 0.00 0.00 0.00 0.00 0.00 0.00 0.00 0.00 0.00 0.00 0.00 0.00 0.00 0.00 0.00 0.00 0.00 0.00 0.00 0.00 0.00 0.00 0.00 0.00 0.00 0.00 0.00 0.00 0.00 0.00 0.00 0.00 0.00 0.00 0.00 0.00 0.01 0.00 0.00 0.01 0.00 0.02 0.11 0.00 0.00 0.00 0.00 0.00 0.00
0.00 0.00 0.00 0.00 0.00 0.00 0.00 0.00 0.00 0.00 0.00 0.00 0.00 0.00 0.00 0.00 0.00 0.00 0.00 0.00 0.00 0.00 0.00 0.00 0.00 0.00 0.00 0.00 0.00 0.00 0.00 0.00 0.00 0.00 0.00 0.00 0.00 0.00 0.00 0.00 0.01 0.01 0.01 0.00 0.02 0.00 0.00 0.01 0.00 0.00 0.00 0.00 0.00 0.01
0.00 0.00 0.00 0.00 0.00 0.00 0.00 0.00 0.00 0.00 0.00 0.00 0.00 0.00 0.00 0.00 0.00 0.00 0.00 0.00 0.00 0.00 0.00 0.00 0.00 0.00 0.00 0.00 0.00 0.00 0.00 0.00 0.00 0.00 0.00 0.00 0.00 0.00 0.00 0.00 0.00 0.01 0.02 0.05 0.01 0.00 0.01 0.00 0.00 0.00 0.00 0.03 0.07 0.10
0.00 0.00 0.00 0.00 0.00 0.00 0.00 0.00 0.00 0.00 0.00 0.00 0.00 0.00 0.00 0.00 0.00 0.00 0.00 0.00 0.00 0.00 0.00 0.00 0.00 0.00 0.00 0.00 0.00 0.00 0.00 0.00 0.00 0.00 0.00 0.00 0.00 0.00 0.00 0.00 0.00 0.01 0.02 0.05 0.01 0.01 0.01 0.00 0.04 0.08 0.11 0.14 0.15 0.13
0.00 0.00 0.00 0.00 0.00 0.00 0.00 0.00 0.00 0.00 0.00 0.00 0.00 0.00 0.00 0.00 0.00 0.00 0.00 0.00 0.00 0.00 0.00 0.00 0.00 0.00 0.00 0.00 0.00 0.00 0.00 0.00 0.00 0.00 0.00 0.00 0.00 0.00 0.00 0.00 0.00 0.01 0.01 0.02 0.00 0.00 0.00 0.00 0.02 0.10 0.09 0.09 0.11 0.14
0.00 0.01 0.00 0.00 0.00 0.00 0.00 0.00 0.00 0.00 0.00 0.00 0.00 0.00 0.00 0.00 0.00 0.00 0.00 0.00 0.00 0.00 0.00 0.00 0.00 0.00 0.00 0.00 0.00 0.00 0.00 0.00 0.00 0.00 0.00 0.00 0.00 0.00 0.00 0.00 0.00 0.00 0.00 0.00 0.00 0.00 0.00 0.00 0.01 0.04 0.04 0.00 0.00 0.00
0.01 0.02 0.01 0.00 0.00 0.00 0.00 0.00 0.00 0.00 0.00 0.00 0.00 0.00 0.00 0.00 0.00 0.00 0.00 0.00 0.00 0.00 0.00 0.00 0.00 0.00 0.00 0.00 0.00 0.00 0.00 0.00 0.00 0.00 0.00 0.00 0.00 0.00 0.00 0.00 0.00 0.00 0.00 0.00 0.00 0.00 0.00 0.00 0.01 0.01 0.01 0.00 0.00 0.00
0.01 0.01 0.01 0.01 0.01 0.01 0.00 0.00 0.00 0.00 0.00 0.00 0.00 0.00 0.00 0.00 0.00 0.00 0.00 0.00 0.00 0.00 0.00 0.00 0.00 0.00 0.00 0.00 0.01 0.00 0.00 0.00 0.00 0.00 0.00 0.00 0.06 0.00 0.00 0.00 0.00 0.00 0.00 0.00 0.00 0.00 0.00 0.00 0.00 0.00 0.00 0.00 0.00 0.00
0.01 0.01 0.01 0.01 0.02 0.01 0.00 0.00 0.00 0.00 0.00 0.00 0.00 0.00 0.00 0.00 0.00 0.00 0.00 0.00 0.00 0.00 0.00 0.00 0.00 0.00 0.00 0.00 0.00 0.00 0.01 0.00 0.01 0.01 0.00 0.09 0.10 0.01 0.00 0.00 0.00 0.00 0.00 0.00 0.00 0.00 0.00 0.00 0.00 0.00 0.00 0.00 0.00 0.00
0.01 0.00 0.00 0.00 0.02 0.02 0.00 0.00 0.00 0.00 0.00 0.00 0.00 0.00 0.00 0.00 0.00 0.00 0.00 0.00 0.00 0.00 0.00 0.00 0.00 0.00 0.00 0.00 0.00 0.01 0.00 0.02 0.05 0.01 0.06 0.19 0.09 0.04 0.00 0.00 0.00 0.00 0.00 0.00 0.00 0.00 0.00 0.00 0.00 0.00 0.00 0.00 0.00 0.00
0.00 0.00 0.00 0.01 0.03 0.01 0.00 0.00 0.00 0.00 0.00 0.00 0.00 0.00 0.00 0.00 0.00 0.00 0.00 0.00 0.00 0.00 0.00 0.00 0.00 0.00 0.00 0.00 0.00 0.02 0.02 0.04 0.07 0.12 0.18 0.16 0.06 0.08 0.04 0.00 0.00 0.00 0.00 0.00 0.00 0.00 0.00 0.00 0.00 0.00 0.00 0.00 0.00 0.00
0.01 0.02 0.02 0.02 0.02 0.00 0.00 0.00 0.00 0.00 0.00 0.00 0.00 0.00 0.00 0.00 0.00 0.00 0.00 0.00 0.00 0.00 0.00 0.00 0.00 0.00 0.00 0.00 0.00 0.00 0.02 0.12 0.16 0.17 0.22 0.19 0.14 0.08 0.06 0.00 0.00 0.00 0.00 0.00 0.00 0.00 0.00 0.00 0.00 0.00 0.00 0.00 0.00 0.00
0.01 0.03 0.02 0.01 0.00 0.00 0.00 0.00 0.00 0.00 0.00 0.00 0.00 0.00 0.00 0.00 0.00 0.00 0.00 0.00 0.00 0.01 0.02 0.00 0.01 0.01 0.00 0.01 0.00 0.00 0.09 0.13 0.03 0.04 0.16 0.16 0.12 0.09 0.03 0.00 0.00 0.00 0.00 0.00 0.00 0.00 0.00 0.00 0.00 0.00 0.00 0.00 0.01 0.01
0.02 0.01 0.00 0.00 0.00 0.00 0.00 0.00 0.00 0.00 0.00 0.00 0.00 0.00 0.00 0.00 0.00 0.00 0.00 0.00 0.00 0.00 0.01 0.01 0.00 0.01 0.00 0.01 0.08 0.05 0.08 0.08 0.05 0.05 0.07 0.03 0.01 0.01 0.00 0.00 0.00 0.00 0.00 0.00 0.00 0.01 0.02 0.01 0.01 0.01 0.01 0.01 0.01 0.01
0.02 0.00 0.00 0.00 0.00 0.00 0.00 0.00 0.00 0.00 0.00 0.00 0.00 0.00 0.00 0.00 0.00 0.00 0.00 0.00 0.00 0.00 0.00 0.00 0.00 0.04 0.04 0.02 0.05 0.07 0.03 0.02 0.04 0.02 0.01 0.00 0.00 0.00 0.00 0.00 0.01 0.04 0.05 0.02 0.00 0.03 0.05 0.04 0.01 0.01 0.00 0.00 0.01 0.00
0.00 0.00 0.00 0.00 0.00 0.00 0.00 0.00 0.00 0.00 0.00 0.00 0.00 0.00 0.00 0.01 0.00 0.00 0.00 0.00 0.00 0.00 0.00 0.00 0.01 0.05 0.04 0.01 0.01 0.00 0.00 0.01 0.00 0.00 0.01 0.00 0.00 0.00 0.00 0.00 0.02 0.07 0.06 0.01 0.02 0.01 0.03 0.01 0.01 0.01 0.00 0.00 0.00 0.00
0.00 0.00 0.00 0.00 0.00 0.00 0.00 0.00 0.00 0.00 0.00 0.00 0.00 0.00 0.01 0.01 0.03 0.01 0.00 0.00 0.00 0.00 0.00 0.00 0.00 0.03 0.02 0.00 0.00 0.00 0.00 0.00 0.00 0.00 0.00 0.00 0.00 0.00 0.00 0.01 0.01 0.03 0.01 0.01 0.03 0.01 0.02 0.01 0.02 0.01 0.00 0.01 0.00 0.00
0.00 0.00 0.00 0.00 0.02 0.03 0.02 0.00 0.02 0.01 0.01 0.02 0.01 0.01 0.05 0.05 0.07 0.03 0.00 0.00 0.00 0.00 0.00 0.00 0.00 0.00 0.01 0.01 0.00 0.00 0.00 0.00 0.00 0.00 0.00 0.00 0.00 0.00 0.01 0.01 0.01 0.00 0.00 0.02 0.06 0.03 0.02 0.01 0.00 0.00 0.00 0.00 0.00 0.00
0.00 0.01 0.02 0.04 0.04 0.03 0.02 0.02 0.04 0.04 0.07 0.04 0.04 0.07 0.09 0.05 0.00 0.00 0.00 0.00 0.00 0.00 0.00 0.00 0.00 0.00 0.00 0.00 0.00 0.00 0.00 0.00 0.00 0.00 0.00 0.00 0.00 0.01 0.01 0.00 0.00 0.00 0.00 0.03 0.06 0.02 0.00 0.00 0.00 0.00 0.00 0.00 0.00 0.00
0.00 0.03 0.06 0.04 0.04 0.02 0.03 0.06 0.05 0.07 0.08 0.06 0.06 0.07 0.04 0.01 0.00 0.00 0.00 0.00 0.00 0.00 0.00 0.00 0.00 0.00 0.00 0.00 0.01 0.02 0.01 0.01 0.02 0.03 0.01 0.00 0.00 0.00 0.00 0.01 0.00 0.00 0.01 0.00 0.00 0.00 0.00 0.00 0.00 0.00 0.00 0.00 0.00 0.00
0.01 0.00 0.01 0.01 0.02 0.02 0.01 0.03 0.03 0.03 0.07 0.05 0.03 0.02 0.00 0.00 0.00 0.01 0.01 0.00 0.00 0.00 0.00 0.00 0.00 0.00 0.00 0.01 0.01 0.00 0.00 0.00 0.00 0.01 0.00 0.00 0.00 0.00 0.02 0.03 0.01 0.00 0.00 0.00 0.00 0.00 0.00 0.00 0.00 0.00 0.00 0.00 0.00 0.00
0.00 0.00 0.01 0.03 0.00 0.01 0.01 0.01 0.00 0.00 0.00 0.00 0.00 0.00 0.00 0.00 0.00 0.00 0.00 0.00 0.00 0.00 0.00 0.02 0.04 0.04 0.02 0.01 0.00 0.00 0.00 0.00 0.00 0.00 0.00 0.00 0.00 0.00 0.00 0.00 0.00 0.00 0.00 0.00 0.00 0.00 0.00 0.00 0.00 0.00 0.00 0.00 0.00 0.00
0.01 0.04 0.02 0.01 0.00 0.00 0.00 0.00 0.00 0.00 0.00 0.00 0.00 0.00 0.00 0.00 0.00 0.00 0.00 0.00 0.01 0.02 0.02 0.01 0.01 0.03 0.03 0.01 0.00 0.00 0.00 0.00 0.01 0.00 0.00 0.00 0.00 0.00 0.00 0.00 0.00 0.00 0.00 0.00 0.00 0.00 0.00 0.00 0.00 0.00 0.00 0.00 0.00 0.00
0.01 0.02 0.01 0.00 0.00 0.00 0.00 0.00 0.00 0.00 0.00 0.00 0.00 0.00 0.00 0.00 0.01 0.02 0.02 0.01 0.00 0.00 0.00 0.00 0.00 0.00 0.00 0.00 0.00 0.01 0.01 0.00 0.00 0.00 0.00 0.00 0.00 0.00 0.00 0.00 0.00 0.00 0.00 0.00 0.00 0.00 0.00 0.00 0.00 0.00 0.00 0.00 0.00 0.00
0.00 0.00 0.00 0.00 0.00 0.00 0.00 0.00 0.00 0.00 0.00 0.00 0.00 0.00 0.01 0.01 0.01 0.00 0.00 0.00 0.00 0.01 0.01 0.01 0.00 0.00 0.00 0.00 0.00 0.01 0.00 0.00 0.00 0.00 0.00 0.00 0.00 0.00 0.00 0.00 0.00 0.00 0.00 0.00 0.00 0.00 0.00 0.00 0.00 0.00 0.00 0.00 0.00 0.00
0.00 0.00 0.00 0.00 0.00 0.00 0.01 0.01 0.01 0.02 0.01 0.00 0.00 0.00 0.00 0.00 0.00 0.00 0.00 0.01 0.01 0.00 0.00 0.00 0.00 0.00 0.00 0.00 0.00 0.00 0.00 0.00 0.00 0.00 0.00 0.00 0.00 0.00 0.00 0.00 0.00 0.00 0.00 0.00 0.00 0.00 0.00 0.00 0.00 0.00 0.00 0.00 0.00 0.00
0.00 0.00 0.00 0.00 0.00 0.00 0.03 0.05 0.02 0.01 0.00 0.00 0.00 0.00 0.00 0.00 0.01 0.00 0.00 0.00 0.00 0.00 0.00 0.01 0.00 0.00 0.00 0.00 0.00 0.00 0.00 0.00 0.00 0.00 0.00 0.00 0.00 0.00 0.00 0.00 0.00 0.00 0.00 0.00 0.00 0.00 0.00 0.00 0.00 0.00 0.00 0.00 0.00 0.00
0.00 0.00 0.00 0.00 0.00 0.00 0.01 0.01 0.01 0.00 0.00 0.01 0.00 0.00 0.00 0.00 0.01 0.01 0.00 0.00 0.00 0.01 0.01 0.00 0.00 0.00 0.00 0.00 0.00 0.00 0.00 0.00 0.00 0.00 0.00 0.00 0.00 0.00 0.00 0.00 0.00 0.00 0.00 0.00 0.00 0.00 0.00 0.00 0.00 0.00 0.00 0.00 0.00 0.00
0.00 0.00 0.00 0.00 0.00 0.00 0.00 0.01 0.01 0.01 0.02 0.01 0.00 0.00 0.00 0.00 0.00 0.00 0.00 0.00 0.00 0.01 0.01 0.00 0.01 0.00 0.00 0.00 0.00 0.00 0.00 0.00 0.00 0.00 0.00 0.00 0.00 0.00 0.00 0.00 0.00 0.00 0.00 0.00 0.00 0.00 0.00 0.00 0.00 0.00 0.00 0.00 0.00 0.00
MSLP
1016.66 1017.84 1018.71 1019.57 1020.13 1020.51 1020.93 1021.17 1021.45 1021.54 1021.56 1021.57 1021.30 1020.97 1020.57 1020.09 1019.61 1018.83 1015.99 1015.26 1014.76 1012.75 1010.72 1010.71 1010.18 1010.02 1009.52 1009.22 1008.71 1008.72 1007.79 1006.89 1006.31 1005.90 1005.32 1004.31 1003.78 1003.67 1003.14 1002.54 1002.43 1002.78 1003.37 1003.33 1002.95 1002.71 1002.90 1003.56 1003.36 1003.64 1004.26 1004.10 1001.05 1003.45
1015.83 1017.03 1018.05 1018.87 1019.57 1020.03 1020.52 1020.87 1021.21 1021.35 1021.41 1021.51 1021.29 1021.03 1020.71 1020.27 1019.78 1019.31 1016.21 1014.70 1014.90 1014.34 1011.99 1011.45 1011.12 1011.02 1010.94 1010.73 1010.47 1009.61 1008.95 1008.45 1008.35 1007.45 1006.56 1005.53 1004.94 1004.91 1004.93 1004.18 1003.77 1004.57 1005.82 1007.67 1004.80 1003.75 1004.58 1004.41 1004.57 1004.25 1004.40 1004.05 1003.16 1003.79
1015.09 1016.33 1017.40 1018.22 1018.92 1019.51 1020.09 1020.54 1020.93 1021.09 1021.21 1021.33 1021.15 1020.95 1020.72 1020.42 1020.05 1019.86 1017.69 1015.68 1014.94 1013.75 1011.79 1010.91 1010.27 1010.88 1010.67 1010.71 1010.43 1010.16 1009.61 1010.13 1009.31 1009.94 1008.57 1006.97 1006.85 1007.53 1007.45 1007.11 1006.20 1005.61 1006.51 1006.60 1008.23 1005.74 1004.45 1004.71 1004.86 1004.47 1004.03 1004.25 1004.23 1004.47
1014.45 1015.67 1016.79 1017.69 1018.42 1019.11 1019.76 1020.19 1020.62 1020.83 1021.03 1021.13 1021.02 1020.86 1020.63 1020.43 1020.14 1019.85 1017.80 1015.91 1015.21 1013.87 1011.71 1010.18 1010.21 1010.54 1010.71 1010.57 1010.77 1010.69 1010.62 1010.53 1010.18 1009.45 1008.46 1007.30 1007.07 1008.40 1009.12 1009.59 1009.20 1007.87 1007.45 1006.22 1006.55 1005.25 1004.52 1004.55 1004.59 1004.32 1004.79 1004.97 1004.37 1004.62
1013.87 1015.15 1016.23 1017.19 1018.00 1018.73 1019.33 1019.86 1020.36 1020.65 1020.88 1020.93 1020.93 1020.80 1020.58 1020.37 1020.12 1019.27 1017.49 1015.79 1015.53 1015.31 1012.82 1010.37 1010.03 1010.08 1010.48 1010.71 1010.56 1010.60 1010.66 1010.55 1009.47 1008.83 1008.25 1007.94 1007.97 1009.18 1009.09 1009.56 1010.69 1011.59 1010.44 1008.99 1005.88 1004.95 1004.50 1005.05 1005.09 1004.82 1005.09 1004.97 1005.10 1005.50
1013.46 1014.63 1015.79 1016.69 1017.63 1018.39 1019.05 1019.66 1020.16 1020.55 1020.70 1020.75 1020.80 1020.72 1020.49 1020.22 1019.92 1018.63 1016.22 1015.62 1016.45 1015.66 1014.08 1010.58 1009.87 1010.01 1010.24 1010.57 1010.47 1010.46 1010.28 1010.08 1009.55 1009.17 1008.54 1008.67 1009.25 1010.25 1009.97 1009.90 1011.39 1012.30 1011.52 1011.20 1009.46 1003.79 1005.40 1005.59 1005.47 1005.51 1005.41 1005.93 1006.01 1006.47
1013.20 1014.36 1015.47 1016.31 1017.29 1018.13 1018.91 1019.47 1020.06 1020.34 1020.57 1020.58 1020.67 1020.67 1020.33 1020.22 1019.65 1018.39 1018.26 1017.45 1017.69 1016.97 1014.33 1011.31 1009.31 1009.55 1009.86 1010.22 1010.10 1009.82 1009.81 1009.82 1009.53 1009.01 1009.14 1009.15 1010.23 1010.80 1010.51 1010.55 1011.08 1011.68 1011.59 1011.19 1008.27 1004.33 1005.78 1006.01 1006.40 1006.84 1007.68 1008.01 1008.25 1008.88
1013.03 1014.17 1015.17 1016.13 1017.07 1017.93 1018.76 1019.34 1019.85 1020.17 1020.39 1020.45 1020.50 1020.31 1020.16 1019.87 1019.44 1018.34 1017.14 1017.61 1017.61 1016.03 1013.96 1011.56 1009.47 1009.18 1009.67 1009.37 1009.31 1009.10 1009.12 1009.06 1009.23 1009.28 1008.97 1009.33 1010.55 1011.34 1010.87 1010.65 1011.36 1011.63 1011.21 1011.23 1009.90 1006.30 1005.83 1007.27 1008.63 1009.61 1010.13 1010.75 1010.83 1010.77
1013.08 1014.03 1014.95 1015.85 1016.85 1017.79 1018.54 1019.20 1019.63 1020.00 1020.22 1020.43 1020.23 1020.21 1019.49 1018.69 1016.78 1016.99 1017.45 1017.47 1016.83 1016.42 1013.86 1011.16 1009.19 1009.46 1009.54 1009.20 1008.79 1009.10 1009.15 1008.82 1008.39 1008.57 1008.75 1009.28 1009.61 1010.34 1010.67 1010.81 1011.07 1011.51 1010.74 1010.34 1010.95 1009.09 1008.69 1008.33 1009.79 1010.85 1011.59 1011.85 1012.28 1012.72
1012.95 1013.84 1014.59 1015.63 1016.68 1017.65 1018.47 1019.05 1019.54 1019.97 1020.25 1020.30 1020.07 1018.75 1016.96 1016.31 1017.13 1017.30 1017.35 1016.22 1015.68 1014.55 1013.73 1011.57 1009.42 1008.66 1008.95 1008.64 1008.91 1009.16 1009.06 1008.65 1008.06 1007.81 1007.77 1008.30 1008.85 1009.23 1010.05 1010.50 1010.49 1010.79 1010.60 1010.05 1009.67 1009.87 1008.83 1009.17 1010.70 1011.57 1011.32 1011.85 1011.62 1011.72
1012.57 1013.61 1014.56 1015.54 1016.59 1017.67 1018.52 1019.01 1019.51 1020.08 1020.24 1019.54 1017.84 1016.11 1016.48 1017.11 1016.69 1015.67 1014.85 1014.33 1013.57 1012.68 1011.74 1010.81 1009.77 1008.96 1008.73 1009.15 1010.67 1011.58 1010.88 1011.06 1008.99 1007.71 1007.85 1008.14 1008.07 1008.17 1009.30 1010.14 1010.31 1010.21 1009.92 1009.60 1009.41 1009.48 1009.31 1009.62 1010.57 1011.64 1012.74 1011.87 1011.19 1011.27
1012.44 1013.23 1014.43 1015.60 1016.71 1017.79 1018.45 1018.87 1019.36 1019.60 1018.15 1018.53 1018.05 1016.25 1016.08 1015.81 1015.15 1014.55 1013.79 1012.84 1011.82 1011.00 1010.05 1009.72 1009.49 1009.58 1009.75 1010.10 1010.67 1012.22 1011.80 1010.73 1010.31 1010.99 1009.65 1008.81 1009.41 1009.44 1009.83 1010.17 1010.29 1010.17 1010.43 1010.44 1010.20 1010.11 1010.15 1010.34 1011.05 1011.77 1012.69 1011.51 1011.13 1011.35
1012.79 1013.39 1014.30 1015.67 1016.74 1017.71 1018.41 1018.84 1019.23 1019.06 1018.87 1017.47 1017.16 1015.72 1014.90 1014.93 1014.55 1013.38 1012.10 1011.16 1010.55 1009.97 1009.85 1009.79 1009.73 1009.68 1010.04 1010.58 1010.63 1011.07 1011.60 1011.24 1010.16 1009.61 1009.74 1010.44 1010.69 1010.13 1010.25 1010.32 1010.63 1010.83 1010.91 1011.01 1011.12 1011.18 1011.04 1011.09 1011.06 1011.47 1011.73 1011.75 1011.60 1011.81
1014.25 1014.91 1015.49 1016.19 1017.10 1017.87 1018.49 1019.06 1019.45 1019.80 1019.47 1016.75 1015.68 1015.63 1014.56 1013.55 1012.56 1011.19 1010.25 1009.63 1009.29 1009.51 1009.77 1009.70 1009.62 1010.12 1010.05 1010.57 1011.08 1011.11 1010.91 1010.99 1011.45 1011.68 1011.96 1011.96 1011.59 1011.57 1011.54 1011.59 1011.51 1011.56 1011.41 1011.25 1011.20 1011.12 1011.02 1010.94 1011.17 1011.47 1011.46 1011.59 1011.96 1012.14
1015.23 1015.87 1016.61 1017.28 1017.79 1018.25 1018.84 1019.36 1019.69 1019.64 1018.11 1015.59 1014.41 1013.86 1013.05 1011.71 1010.83 1010.05 1009.83 1010.33 1010.03 1009.65 1010.04 1009.86 1010.33 1010.16 1010.36 1010.78 1011.33 1012.71 1011.68 1011.33 1011.43 1012.48 1013.24 1012.91 1012.45 1012.63 1012.63 1012.45 1012.40 1012.55 1012.57 1012.45 1012.32 1011.91 1011.61 1011.58 1011.80 1011.84 1011.92 1012.25 1012.21 1012.60
1015.86 1016.71 1017.07 1017.47 1017.96 1018.60 1019.10 1019.59 1019.60 1018.67 1016.27 1015.04 1013.90 1012.46 1011.41 1011.22 1010.59 1010.17 1010.07 1009.94 1010.13 1010.21 1010.50 1010.43 1010.92 1010.44 1011.21 1011.47 1010.54 1010.98 1010.80 1011.72 1012.84 1013.45 1013.77 1013.55 1013.41 1013.37 1013.21 1013.10 1013.35 1013.51 1013.63 1013.51 1013.53 1013.37 1013.21 1012.85 1012.65 1012.62 1012.59 1013.05 1013.16 1013.49
1015.93 1016.24 1017.21 1017.83 1018.44 1018.92 1019.18 1018.96 1018.21 1016.85 1015.15 1014.23 1012.94 1012.02 1011.13 1010.71 1010.39 1009.97 1010.05 1010.33 1010.18 1010.91 1010.84 1011.35 1011.20 1010.83 1010.43 1011.27 1010.81 1010.96 1011.90 1012.25 1012.86 1013.97 1014.41 1014.21 1014.17 1013.95 1013.67 1013.63 1014.08 1014.27 1014.29 1014.45 1014.45 1014.30 1014.13 1013.76 1013.81 1013.55 1013.61 1013.75 1013.83 1014.23
1016.25 1016.96 1017.69 1018.23 1018.61 1018.94 1018.73 1018.49 1016.40 1015.28 1014.37 1013.27 1012.04 1011.58 1011.28 1011.67 1011.58 1011.37 1010.65 1011.67 1011.06 1011.06 1011.46 1011.32 1011.54 1011.31 1011.13 1010.95 1011.75 1013.38 1013.71 1012.99 1013.43 1013.57 1013.77 1013.87 1013.98 1014.05 1014.01 1014.38 1014.65 1014.46 1014.52 1014.57 1014.60 1014.40 1014.23 1014.11 1014.04 1013.97 1014.14 1014.11 1014.38 1014.74
1016.73 1017.38 1018.03 1018.22 1017.96 1017.25 1016.69 1016.49 1015.67 1014.27 1013.40 1012.41 1011.76 1011.42 1011.53 1011.49 1011.47 1011.35 1011.23 1011.35 1011.37 1011.49 1011.66 1011.40 1011.57 1011.60 1012.45 1013.07 1012.65 1012.69 1012.64 1012.71 1013.31 1013.07 1013.15 1013.55 1013.81 1014.25 1014.65 1014.85 1015.05 1015.03 1014.94 1014.84 1014.77 1014.53 1014.71 1014.63 1014.56 1014.43 1014.39 1014.45 1014.67 1014.80
1017.60 1018.01 1018.32 1018.53 1018.45 1016.75 1015.61 1014.97 1015.17 1013.83 1012.33 1011.83 1011.66 1011.64 1011.68 1012.09 1012.02 1011.68 1011.61 1011.52 1011.53 1011.59 1011.51 1011.38 1011.41 1013.03 1013.97 1014.23 1013.67 1012.93 1012.98 1012.79 1012.52 1012.28 1013.34 1013.29 1013.92 1014.20 1014.72 1015.08 1015.21 1015.35 1015.29 1015.10 1015.16 1015.30 1014.79 1014.55 1014.83 1014.91 1014.96 1015.09 1014.89 1014.93
1018.27 1018.77 1019.13 1018.83 1017.70 1017.02 1015.55 1014.51 1013.82 1013.41 1012.80 1011.91 1011.48 1011.75 1012.02 1012.30 1012.10 1012.76 1012.23 1011.57 1011.39 1011.97 1011.49 1011.39 1011.87 1013.76 1013.53 1013.28 1013.32 1013.52 1013.10 1012.83 1012.85 1013.22 1013.45 1013.65 1014.32 1014.55 1015.01 1015.40 1015.47 1015.46 1015.12 1015.26 1015.27 1015.24 1015.23 1015.26 1015.29 1015.09 1014.92 1014.70 1014.89 1014.95
1017.93 1018.71 1018.29 1018.64 1017.77 1016.70 1015.53 1014.27 1013.92 1013.47 1013.43 1012.53 1012.27 1012.17 1012.61 1012.69 1012.87 1013.31 1012.22 1011.71 1011.33 1011.31 1011.54 1012.15 1012.37 1012.67 1013.35 1013.61 1013.71 1013.78 1013.87 1014.05 1014.13 1014.28 1014.38 1014.80 1014.91 1015.40 1015.81 1016.03 1015.92 1015.78 1015.61 1015.58 1015.47 1015.29 1015.23 1015.29 1015.01 1015.13 1014.92 1014.45 1014.59 1014.20
1018.43 1018.14 1017.40 1017.27 1017.13 1016.37 1015.43 1014.46 1014.19 1013.78 1013.53 1013.10 1012.76 1012.73 1012.98 1012.87 1012.42 1012.74 1012.15 1011.47 1012.19 1012.15 1012.35 1012.47 1013.10 1013.45 1013.62 1013.81 1014.01 1014.31 1014.54 1014.76 1014.63 1014.41 1015.02 1015.48 1016.00 1016.28 1016.29 1016.23 1016.29 1015.94 1015.67 1015.46 1015.23 1014.82 1015.03 1015.27 1015.09 1015.06 1014.48 1014.02 1013.85 1013.81
1018.21 1017.41 1016.85 1016.30 1015.86 1015.16 1014.37 1014.33 1014.00 1013.69 1013.49 1013.21 1012.96 1012.87 1013.44 1012.72 1012.57 1012.18 1012.09 1012.09 1011.75 1012.02 1012.47 1013.25 1013.37 1013.34 1013.49 1014.26 1014.38 1015.03 1015.36 1015.49 1015.47 1015.56 1015.76 1016.06 1016.19 1016.33 1016.29 1016.16 1015.70 1015.41 1015.22 1014.41 1014.62 1014.95 1014.99 1014.67 1014.59 1014.14 1013.44 1013.01 1012.88 1012.86
1018.07 1017.36 1016.52 1015.83 1014.80 1014.41 1014.18 1013.43 1013.55 1013.32 1013.11 1013.03 1012.97 1012.59 1012.44 1012.61 1012.20 1012.66 1012.54 1012.15 1011.67 1012.03 1012.45 1013.11 1013.38 1013.52 1013.77 1014.46 1015.14 1015.60 1015.96 1015.98 1015.72 1015.69 1016.02 1016.20 1016.23 1016.15 1016.03 1015.61 1015.21 1014.74 1014.02 1014.18 1014.14 1014.21 1014.25 1013.99 1013.87 1013.83 1013.74 1013.43 1013.40 1013.07
1017.51 1016.22 1016.04 1014.61 1014.29 1014.03 1013.69 1012.99 1012.91 1013.14 1013.26 1012.59 1012.49 1012.58 1012.72 1012.36 1012.57 1013.09 1012.43 1012.60 1012.75 1013.19 1013.45 1013.82 1014.27 1014.40 1014.58 1014.91 1015.49 1015.97 1015.97 1015.99 1015.83 1015.09 1015.29 1015.44 1015.52 1015.05 1014.45 1014.18 1014.07 1013.64 1013.57 1013.98 1013.61 1013.76 1014.15 1014.21 1013.67 1013.48 1013.64 1013.61 1013.74 1013.54
1016.88 1015.63 1014.89 1014.14 1013.74 1013.54 1012.95 1012.41 1012.46 1012.48 1012.47 1012.37 1012.27 1012.39 1012.71 1012.79 1013.00 1012.70 1013.30 1013.80 1014.10 1014.37 1014.70 1014.72 1014.73 1014.91 1014.85 1015.27 1015.72 1015.85 1015.90 1015.75 1015.35 1014.81 1014.55 1014.24 1014.01 1014.06 1013.75 1013.67 1013.54 1013.93 1013.49 1013.31 1013.74 1013.82 1013.85 1013.88 1013.69 1013.33 1013.16 1013.33 1013.05 1013.07
1016.12 1015.41 1014.66 1014.30 1013.89 1013.45 1013.13 1012.75 1012.77 1012.57 1012.33 1012.07 1012.38 1012.53 1012.70 1012.76 1013.29 1013.90 1014.58 1014.67 1014.70 1014.79 1014.99 1014.88 1015.06 1015.12 1015.23 1015.50 1015.61 1015.59 1015.39 1015.24 1014.97 1014.45 1014.47 1014.18 1013.71 1013.73 1013.69 1013.60 1013.61 1013.93 1013.83 1013.76 1013.58 1013.51 1013.87 1013.89 1013.80 1013.62 1013.43 1013.34 1013.05 1013.00
1016.21 1015.31 1014.87 1014.57 1014.08 1013.72 1013.43 1013.25 1013.27 1013.24 1013.41 1013.37 1013.51 1013.76 1014.15 1014.39 1014.64 1014.68 1014.81 1014.91 1014.89 1015.21 1015.17 1015.17 1015.40 1015.42 1015.50 1015.48 1015.49 1015.15 1014.82 1014.25 1013.70 1013.64 1013.41 1012.97 1012.62 1013.21 1013.38 1013.31 1013.23 1013.32 1013.39 1013.68 1014.06 1013.99 1013.91 1013.76 1013.65 1013.59 1013.42 1013.18 1013.04 1012.86
1016.38 1015.95 1015.58 1015.24 1014.80 1014.79 1014.73 1014.49 1014.57 1014.73 1014.68 1015.09 1014.93 1014.84 1015.03 1015.04 1015.28 1015.51 1015.27 1014.88 1014.93 1015.07 1014.89 1014.77 1014.57 1014.95 1014.73 1014.37 1013.85 1013.32 1012.89 1012.71 1012.54 1012.55 1012.69 1012.41 1012.03 1011.92 1012.24 1012.26 1012.24 1012.21 1012.37 1012.85 1013.03 1013.44 1014.10 1014.03 1013.74 1013.78 1013.61 1013.42 1013.55 1013.26
1016.92 1016.83 1016.52 1016.19 1015.90 1015.58 1015.85 1015.67 1015.33 1015.43 1015.66 1015.80 1016.19 1016.04 1015.99 1016.02 1015.85 1015.59 1015.30 1015.07 1014.99 1014.55 1014.49 1014.50 1014.25 1013.87 1013.40 1013.55 1013.63 1013.22 1012.97 1012.33 1012.11 1012.03 1012.03 1012.10 1012.28 1012.15 1012.18 1011.89 1011.96 1012.08 1012.22 1012.23 1012.37 1012.62 1012.85 1013.05 1012.88 1012.85 1012.50 1012.97 1012.83 1012.93
1017.48 1017.31 1017.14 1016.79 1016.38 1016.32 1016.29 1016.11 1015.91 1015.77 1015.90 1015.87 1015.72 1015.87 1015.82 1015.77 1015.07 1014.55 1014.59 1014.57 1014.29 1014.11 1014.70 1014.55 1014.05 1013.31 1012.99 1013.11 1013.11 1012.81 1012.72 1012.66 1012.99 1012.29 1012.33 1012.33 1012.36 1012.16 1011.96 1011.93 1011.90 1012.00 1012.17 1012.01 1012.07 1012.21 1012.20 1012.37 1012.27 1012.25 1012.19 1012.49 1012.87 1013.02
1017.09 1016.90 1016.76 1016.34 1016.09 1015.93 1015.83 1015.72 1015.55 1015.56 1015.13 1014.83 1014.35 1014.06 1013.70 1013.54 1013.75 1013.67 1013.91 1014.14 1013.87 1013.74 1013.90 1014.21 1013.52 1013.13 1012.84 1012.18 1012.40 1012.65 1012.81 1013.23 1013.50 1013.35 1013.38 1013.51 1013.57 1013.35 1012.95 1012.49 1012.67 1012.22 1012.00 1012.01 1012.13 1012.09 1012.29 1012.51 1012.60 1012.70 1012.84 1012.85 1012.86 1012.87
Thickness
5524 5518 5515 5512 5511 5514 5516 5520 5523 5527 5533 5538 5545 5553 5559 5567 5575 5584 5607 5614 5615 5625 5646 5644 5651 5646 5654 5659 5655 5662 5677 5691 5699 5696 5705 5718 5719 5728 5731 5753 5749 5747 5743 5744 5757 5753 5746 5760 5767 5748 5748 5743 5777 5783
5525 5516 5512 5509 5508 5509 5511 5515 5518 5522 5527 5532 5539 5546 5553 5560 5568 5575 5601 5612 5612 5609 5630 5640 5643 5647 5646 5650 5647 5657 5663 5671 5677 5682 5689 5704 5709 5714 5710 5710 5748 5725 5724 5682 5738 5741 5747 5755 5735 5761 5768 5765 5773 5780
5524 5516 5510 5507 5505 5505 5506 5509 5512 5517 5521 5526 5533 5541 5547 5554 5560 5566 5585 5601 5606 5611 5628 5635 5639 5644 5652 5652 5659 5645 5656 5659 5670 5670 5679 5694 5681 5691 5680 5691 5710 5731 5714 5690 5666 5722 5744 5745 5747 5763 5764 5766 5773 5777
5524 5514 5507 5502 5501 5500 5501 5504 5507 5512 5516 5521 5528 5535 5542 5548 5555 5561 5579 5594 5600 5608 5617 5633 5647 5640 5648 5651 5649 5651 5651 5657 5661 5670 5672 5683 5683 5681 5666 5673 5679 5703 5708 5718 5717 5728 5744 5743 5735 5749 5754 5759 5766 5770
5521 5511 5503 5498 5496 5495 5497 5499 5501 5506 5511 5517 5523 5530 5537 5543 5551 5560 5575 5590 5594 5592 5605 5630 5640 5644 5644 5643 5643 5646 5645 5645 5656 5659 5664 5666 5676 5669 5682 5675 5657 5662 5679 5692 5720 5730 5728 5730 5742 5749 5748 5753 5758 5756
5515 5507 5501 5497 5493 5492 5492 5494 5497 5501 5506 5513 5518 5524 5531 5539 5546 5560 5582 5589 5584 5591 5598 5620 5640 5635 5639 5637 5638 5638 5642 5644 5649 5649 5657 5659 5658 5659 5658 5660 5658 5652 5657 5669 5680 5719 5716 5722 5733 5742 5746 5746 5749 5747
5506 5500 5495 5492 5488 5487 5486 5488 5491 5497 5501 5508 5514 5520 5527 5533 5541 5562 5568 5572 5573 5579 5595 5612 5627 5636 5637 5634 5635 5638 5642 5639 5642 5645 5641 5647 5640 5643 5646 5643 5653 5654 5658 5660 5660 5707 5709 5717 5714 5722 5714 5715 5715 5708
5496 5493 5489 5486 5483 5481 5481 5483 5487 5491 5497 5503 5510 5517 5523 5531 5539 5556 5566 5565 5569 5581 5596 5603 5619 5628 5635 5627 5625 5640 5634 5638 5636 5634 5640 5634 5632 5624 5625 5644 5639 5644 5656 5642 5646 5681 5704 5699 5683 5681 5679 5678 5675 5679
5487 5485 5484 5482 5479 5477 5477 5479 5483 5487 5493 5498 5507 5513 5522 5536 5558 5559 5558 5562 5567 5572 5585 5608 5615 5601 5630 5626 5633 5631 5632 5621 5639 5627 5629 5629 5624 5614 5622 5626 5629 5630 5645 5641 5641 5672 5678 5681 5663 5656 5653 5657 5654 5651
5478 5477 5477 5476 5474 5472 5472 5475 5478 5481 5487 5495 5504 5524 5543 5551 5546 5550 5555 5564 5568 5580 5585 5594 5622 5616 5625 5626 5623 5622 5625 5623 5619 5631 5639 5623 5620 5632 5627 5630 5631 5633 5638 5648 5646 5648 5671 5668 5647 5643 5654 5654 5659 5653
5466 5466 5467 5469 5469 5468 5467 5473 5476 5477 5484 5499 5521 5541 5540 5539 5547 5557 5562 5567 5577 5579 5594 5601 5611 5611 5626 5612 5598 5595 5599 5588 5608 5628 5623 5619 5621 5631 5629 5626 5626 5631 5635 5641 5654 5659 5661 5659 5652 5642 5631 5646 5650 5653
5454 5457 5460 5461 5463 5463 5466 5471 5475 5479 5500 5506 5516 5534 5539 5543 5551 5553 5558 5572 5580 5581 5602 5602 5606 5609 5610 5613 5601 5587 5585 5603 5592 5581 5608 5614 5606 5618 5619 5620 5623 5626 5625 5629 5639 5642 5644 5643 5642 5635 5624 5636 5646 5644
5442 5448 5453 5453 5457 5459 5463 5468 5473 5481 5489 5507 5519 5532 5541 5543 5527 5548 5556 5572 5578 5593 5599 5600 5597 5604 5606 5605 5601 5595 5582 5587 5615 5610 5606 5591 5600 5611 5613 5617 5616 5617 5618 5619 5621 5627 5631 5632 5637 5632 5629 5631 5636 5636
5419 5428 5434 5442 5447 5453 5458 5462 5467 5473 5484 5514 5524 5501 5534 5542 5555 5570 5580 5586 5594 5596 5595 5598 5599 5595 5602 5593 5592 5585 5596 5598 5580 5564 5572 5588 5594 5595 5599 5602 5603 5602 5609 5612 5615 5620 5623 5626 5627 5627 5628 5627 5625 5624
5404 5414 5419 5426 5435 5443 5450 5456 5462 5470 5492 5519 5533 5517 5542 5564 5575 5584 5584 5578 5587 5595 5591 5592 5591 5597 5591 5587 5585 5565 5577 5580 5588 5576 5574 5578 5585 5584 5585 5589 5592 5591 5595 5597 5602 5608 5613 5615 5614 5616 5618 5617 5618 5617
5400 5404 5411 5421 5430 5437 5444 5451 5460 5477 5505 5519 5533 5545 5561 5561 5567 5574 5577 5577 5585 5586 5587 5589 5578 5584 5572 5575 5587 5583 5589 5574 5572 5571 5567 5571 5573 5575 5578 5581 5581 5582 5584 5587 5588 5592 5594 5599 5602 5605 5608 5605 5604 5602
5402 5411 5409 5416 5424 5433 5441 5454 5469 5489 5509 5519 5534 5551 5560 5564 5566 5573 5575 5575 5584 5574 5571 5570 5567 5575 5592 5572 5585 5593 5578 5578 5580 5569 5561 5563 5564 5567 5573 5577 5574 5575 5576 5575 5577 5580 5582 5588 5589 5591 5589 5592 5592 5589
5401 5407 5409 5414 5422 5431 5444 5455 5483 5499 5509 5526 5538 5548 5555 5555 5553 5557 5570 5564 5571 5571 5570 5569 5577 5575 5579 5584 5576 5555 5549 5571 5572 5573 5570 5570 5570 5571 5572 5569 5568 5572 5572 5573 5574 5577 5580 5581 5582 5583 5582 5584 5582 5579
5400 5406 5411 5418 5428 5447 5462 5472 5488 5503 5516 5532 5543 5551 5553 5555 5560 5563 5566 5568 5570 5573 5571 5574 5571 5574 5570 5568 5571 5571 5575 5576 5568 5576 5579 5575 5573 5568 5565 5564 5562 5564 5566 5568 5570 5573 5571 5573 5575 5576 5576 5576 5573 5573
5400 5406 5413 5419 5428 5453 5468 5483 5491 5507 5523 5535 5543 5545 5549 5547 5553 5559 5561 5564 5566 5566 5566 5569 5576 5561 5548 5536 5560 5573 5574 5577 5581 5583 5570 5576 5571 5569 5564 5561 5560 5559 5561 5564 5564 5559 5568 5569 5567 5566 5566 5564 5566 5565
5403 5405 5412 5422 5439 5452 5473 5488 5500 5510 5521 5533 5544 5544 5543 5547 5549 5543 5551 5564 5563 5554 5564 5574 5575 5544 5553 5570 5572 5569 5575 5578 5577 5573 5571 5570 5566 5565 5561 5557 5556 5557 5561 5558 5558 5559 5558 5557 5558 5561 5563 5565 5563 5562
5413 5413 5426 5429 5442 5458 5474 5494 5500 5511 5515 5528 5536 5542 5537 5537 5537 5534 5555 5556 5561 5567 5569 5566 5570 5569 5563 5562 5564 5566 5566 5564 5565 5563 5554 5553 5558 5553 5549 5547 5548 5549 5552 5552 5553 5554 5556 5557 5560 5558 5559 5564 5560 5566
5415 5424 5439 5447 5451 5459 5470 5495 5498 5509 5512 5522 5533 5532 5531 5535 5547 5549 5549 5560 5554 5561 5565 5564 5561 5561 5561 5561 5560 5559 5558 5556 5557 5561 5555 5551 5544 5542 5542 5542 5541 5544 5547 5548 5554 5559 5557 5552 5555 5557 5563 5567 5567 5566
5426 5438 5448 5458 5468 5475 5494 5496 5507 5513 5518 5523 5528 5530 5525 5539 5547 5549 5545 5549 5560 5562 5559 5555 5557 5559 5561 5554 5555 5550 5548 5547 5547 5546 5545 5540 5538 5537 5539 5541 5547 5549 5551 5561 5560 5557 5557 5561 5559 5564 5570 5572 5572 5571
5433 5442 5453 5444 5483 5490 5492 5506 5509 5516 5519 5525 5526 5535 5539 5542 5543 5533 5537 5550 5561 5561 5561 5557 5557 5557 5556 5551 5547 5544 5541 5540 5542 5540 5537 5535 5535 5537 5540 5547 5551 5557 5564 5562 5562 5562 5562 5565 5565 5564 5563 5564 5562 5565
5432 5464 5456 5485 5491 5495 5501 5511 5516 5517 5518 5529 5534 5539 5540 5542 5537 5519 5547 5550 5552 5550 5551 5549 5546 5546 5547 5548 5543 5538 5539 5537 5540 5548 5545 5544 5544 5550 5557 5559 5559 5564 5568 5564 5566 5563 5559 5559 5563 5564 5561 5560 5553 5557
5446 5474 5486 5497 5503 5509 5515 5525 5529 5529 5528 5530 5537 5539 5537 5533 5530 5546 5546 5543 5541 5542 5542 5543 5544 5541 5544 5542 5540 5537 5538 5542 5546 5551 5555 5558 5561 5562 5564 5563 5563 5561 5567 5568 5564 5562 5560 5560 5561 5563 5563 5561 5562 5560
5478 5486 5491 5499 5506 5517 5518 5524 5524 5527 5533 5543 5541 5537 5538 5541 5539 5539 5534 5538 5539 5540 5539 5541 5541 5541 5541 5539 5538 5541 5544 5547 5551 5556 5556 5560 5565 5564 5565 5565 5566 5560 5563 5564 5565 5565 5561 5560 5559 5559 5558 5557 5558 5557
5484 5497 5502 5503 5511 5517 5522 5524 5526 5531 5533 5535 5533 5532 5530 5534 5535 5535 5535 5536 5538 5534 5534 5535 5534 5537 5538 5540 5542 5546 5549 5554 5557 5553 5558 5563 5567 5563 5565 5566 5567 5566 5566 5563 5556 5557 5558 5558 5557 5556 5555 5555 5555 5555
5493 5500 5503 5508 5512 5512 5516 5522 5521 5524 5527 5524 5528 5530 5529 5532 5531 5530 5532 5536 5535 5535 5540 5543 5547 5544 5546 5552 5557 5561 5566 5567 5569 5567 5563 5565 5571 5575 5573 5572 5572 5573 5572 5566 5563 5559 5550 5551 5552 5550 5549 5548 5544 5543
5498 5499 5502 5506 5509 5516 5514 5517 5522 5522 5520 5519 5515 5518 5520 5521 5524 5528 5533 5536 5539 5545 5546 5548 5551 5556 5559 5557 5555 5558 5560 5570 5573 5574 5574 5573 5572 5572 5571 5573 5572 5571 5568 5567 5564 5561 5559 5554 5554 5552 5552 5545 5544 5540
5493 5494 5497 5501 5511 5513 5513 5513 5515 5516 5517 5516 5518 5518 5521 5523 5532 5540 5542 5543 5546 5549 5544 5545 5551 5558 5563 5561 5562 5565 5566 5567 5565 5572 5571 5571 5569 5570 5572 5571 5570 5568 5564 5563 5561 5559 5558 5553 5552 5550 5548 5543 5537 5533
5504 5505 5506 5513 5516 5519 5522 5524 5526 5525 5529 5535 5541 5545 5550 5551 5545 5549 5551 5549 5551 5553 5552 5547 5554 5559 5563 5569 5567 5565 5562 5561 5555 5555 5555 5553 5552 5554 5560 5563 5560 5561 5561 5558 5555 5554 5549 5545 5542 5539 5536 5533 5531 5528